Location: *
(50.9167°S, 179.4000°W)
Time: 21:40:15
(UTC+00:00)

Cosmos 44 Rocket - Pass Details

Date: 03 March 2024
Orbit: 639 x 745 km, 65.1° (Epoch: 16 April)

Event Time Altitude Azimuth Distance (km) Brightness Sun altitude
Exits shadow 14:35:30 30° 232° (SW) 1,180 4.4 -24.6°
Maximum altitude 14:36:13 31° 214° (SSW) 1,143 4.5 -24.5°
Drops below altitude 10° 14:40:25 10° 150° (SSE) 2,081 6.8 -24.1°
Sets 14:42:59 0° 140° (SE) 3,005 8.0 -23.8°
